Regional Weather Roundup
Issued by NWS Sterling, VA

Home | Current Version | Previous Version | Graphics & Text | Print | Product List | Glossary On
Versions: 1 2 3 4 5 6 7 8 9 10 11 12 13 14 15 16 17 18 19 20 21 22 23 24 25 26 27 28 29 30 31 32 33 34 35 36 37 38 39 40 41 42 43 44 45 46 47 48 49 50
000
ASUS41 KLWX 011010
RWRLWX

REGIONAL WEATHER ROUNDUP
NATIONAL WEATHER SERVICE BALTIMORE MD/WASHINGTON DC
600 AM EDT FRI AUG 01 2014

Note: "FAIR" indicates few or no clouds below 12,000 feet
with no significant weather and/or obstructions to visibility.
 TC=TEMPERATURE CELSIUS

 * =Non NWS site. Station does not report precipitation (e.g. rain,
    snow, etc.), thunder, or fog.

DCZ001-MDZ009-015-VAZ040>042-051-053>054-011100-
WASHINGTON METRO
  /KDAA//-FT BELVOIR

CITY           SKY/WX    TMP DP  RH WIND       PRES   REMARKS
WASHINGTON NAT CLOUDY    76  68  76 S10       30.14S
DULLES         CLOUDY    69  65  86 S3        30.14R
ANDREWS AFB    CLOUDY    70  69  96 S7        30.15R
QUANTICO       CLOUDY    74  68  81 S9        30.15R
COLLEGE PARK*  CLOUDY    72  68  88 CALM      30.14R
LEESBURG*      CLOUDY    68  68 100 CALM      30.15R
MANASSAS*      CLOUDY    70  70 100 CALM      30.14R
GAITHERSBURG*  MOCLDY    68  64  88 SE3       30.19R

$$

MDZ006>007-011-014-011100-
BALTIMORE METRO

CITY           SKY/WX    TMP DP  RH WIND       PRES   REMARKS
BWI AIRPORT    MOCLDY    71  68  90 CALM      30.14R
MD SCIENCE CTR   N/A     74  68  81 MISG      30.15R
MARTIN STATE   MOCLDY    75  72  88 S7        30.15S
ANNAPOLIS      CLOUDY    74  66  76 S6        30.14R
FORT MEADE*    MOCLDY    64  63  94 CALM      30.17R

$$

MDZ012-015-019>023-011100-
MARYLAND EASTERN SHORE

CITY           SKY/WX    TMP DP  RH WIND       PRES   REMARKS
OCEAN CITY     CLOUDY    72  68  87 CALM      30.16S
SALISBURY      CLOUDY    70  65  84 CALM      30.16S
BAY BRIDGE AP*   N/A     73  64  73 S7        30.15R
CAMBRIDGE*     CLOUDY    73  66  78 CALM      30.15S
EASTON*        CLOUDY    73  73 100 CALM      30.19R

$$

MDZ017>025-011100-
SOUTHERN MARYLAND

CITY           SKY/WX    TMP DP  RH WIND       PRES   REMARKS
PATUXENT RIVER CLOUDY    72  65  78 S3        30.15R
ST INIGOES     CLOUDY    73  63  70 S6        30.15R
LEONARDTOWN*   CLOUDY    70  63  78 CALM      30.17R

$$

MDZ003>005-011100-
NORTH CENTRAL MARYLAND

CITY           SKY/WX    TMP DP  RH WIND       PRES   REMARKS
FREDERICK*     MOCLDY    63  63 100 CALM      30.17R FOG
HAGERSTOWN APT MOCLDY    65  60  84 SE3       30.14S
WESTMINSTER*   MOCLDY    70  66  88 SE3       30.16R

$$

MDZ501>502-011100-
WESTERN MARYLAND

CITY           SKY/WX    TMP DP  RH WIND       PRES   REMARKS
OAKLAND*       MOCLDY    59  57  94 S5        30.21S
CUMBERLAND*    MOCLDY    61  57  88 CALM      30.20R

$$

VAZ025>031-011100-
SHENANDOAH VALLEY

CITY           SKY/WX    TMP DP  RH WIND       PRES   REMARKS
WINCHESTER*    CLOUDY    63  61  94 NW3       30.15R
STAUNTON*      CLOUDY    66  62  86 CALM      30.19R

$$

WVZ021-048>050-054>055-011100-
EASTERN WEST VIRGINIA PANHANDLE

CITY           SKY/WX    TMP DP  RH WIND       PRES   REMARKS
MARTINSBURG    CLOUDY    63  59  87 CALM      30.15R
PETERSBURG*    CLOUDY    60  56  88 CALM      30.17S FOG

$$

VAZ036>039-050-011100-
CENTRAL FOOTHILLS

CITY           SKY/WX    TMP DP  RH WIND       PRES   REMARKS
CHARLOTTESVILL CLOUDY    70  65  84 SW3       30.16R
ORANGE*        CLOUDY    68  64  88 CALM      30.16S

$$

VAZ055>057-011100-
NORTH AND CENTRAL PIEDMONT

CITY           SKY/WX    TMP DP  RH WIND       PRES   REMARKS
FREDERICKSBRG* CLOUDY    71  69  93 SE3       30.14R
STAFFORD*      CLOUDY    70  70 100 CALM      30.19R

$$

NCZ024-NYZ072-PAZ021-071-VAZ022-071-011100-
OTHER REGIONAL OBSERVATIONS

CITY           SKY/WX    TMP DP  RH WIND       PRES   REMARKS
NEW YORK CITY  PTCLDY    72  65  78 SW5       30.20R
PHILADELPHIA   MOCLDY    72  67  84 S3        30.17S
PITTSBURGH     MOCLDY    59  57  93 CALM      30.14R
ROANOKE        LGT RAIN  66  64  93 SE5       30.19R
RICHMOND       CLOUDY    71  67  87 CALM      30.16R
RALEIGH        LGT RAIN  70  67  90 CALM      30.12R

$$

ANZ530>537-011100-
MARINE OBSERVATIONS

STATION/POSITION TIME  TEMP    WIND        PRES
                       AIR SEA DIR/SP/G
                 (UTC) (F)     (DEG/KT/KT) (MB)
THOMAS PT LIGHT  1000   75 77  200/ 16/ 18 1021.3R
BALT KEY BRIDGE  1000   86     190/  7/  9 1020.2R
COVE POINT       1000   74     200/ 10/ 12 1020.9R
LEWISETTA        1000   73 78  200/  4/  5 1020.8R
SOLOMONS ISLAND  1000      79                N/A
PINEY POINT      1000          200/  9/ 10   N/A

$$




USA.gov is the U.S. government's official web portal to all federal, state and local government web resources and services.